Weather History for Monticello, NY

Change the Weather History Date:

Saturday, December 8, 2012

  Actual Average Record
Temperature  
Mean Temperature 38 °F -  
Max Temperature 44 °F 35 °F 50 °F (2004)
Min Temperature 33 °F 23 °F 8 °F (2005)
Degree Days  
Heating Degree Days 26    
Moisture  
Dew Point 37 °F    
Average Humidity 93    
Maximum Humidity 100    
Minimum Humidity 87    
Precipitation  
Precipitation 0.00 in - - ()
Sea Level Pressure  
Sea Level Pressure 29.91 in    
Wind  
Wind Speed 2 mph (ESE)    
Max Wind Speed 8 mph    
Max Gust Speed -    
Visibility 1 miles    
Events      
Averages and records for this station are not official NWS values.
T = Trace of Precipitation, MM = Missing Value Source: NWS Daily Summary

Daily Weather History Graph

Daily Weather History Graph

Search for Another Location

Airport:

Trip Planner

Search our weather history database for the weather conditions in past years. The results will help you decide how hot, cold, wet, or windy it might be!

Date:

Astronomy

Dec. 08, 2012 Rise Set
Actual Time 7:13 AM EST 4:28 PM EST
Civil Twilight 6:42 AM EST 4:59 PM EST
Nautical Twilight 6:07 AM EST 5:34 PM EST
Astronomical Twilight 5:34 AM EST 6:08 PM EST
Moon 1:32 AM EST (12/8) 1:00 PM EST (12/8)
Length of Visible Light 10h 17m
Length of Day
9h 14m
Waning Crescent, 28% of the Moon is Illuminated
Dec 8
Waning Crescent
Dec 13
New
Dec 20
First Quarter
Dec 28
Full
Jan 4
Last Quarter

Hourly Weather History & Observations

Time (EST) Temp. Windchill Dew Point Humidity Pressure Visibility Wind Dir Wind Speed Gust Speed Precip Events Conditions
12:15 AM 33.8 °F - 30.2 °F 87% 29.99 in 2.0 mi Calm Calm - N/A   Overcast
12:35 AM 33.8 °F - 32.0 °F 93% 29.97 in 2.5 mi Calm Calm - N/A   Overcast
12:55 AM 33.8 °F - 30.2 °F 87% 29.96 in 2.5 mi Calm Calm - N/A   Overcast
1:15 AM 33.8 °F - 30.2 °F 87% 29.96 in 3.0 mi Calm Calm - N/A   Overcast
1:35 AM 33.8 °F - 32.0 °F 93% 29.95 in 3.0 mi Calm Calm - N/A   Overcast
1:55 AM 33.8 °F 30.8 °F 32.0 °F 93% 29.96 in 1.8 mi South 3.5 mph - N/A   Overcast
2:15 AM 33.8 °F 30.8 °F 32.0 °F 93% 29.95 in 1.5 mi South 3.5 mph - N/A   Overcast
2:35 AM 33.8 °F - 32.0 °F 93% 29.95 in 1.8 mi Calm Calm - N/A   Overcast
2:55 AM 33.8 °F 29.6 °F 33.8 °F 100% 29.94 in 2.0 mi SSE 4.6 mph - N/A   Overcast
3:15 AM 35.6 °F 31.7 °F 33.8 °F 93% 29.94 in 2.5 mi SSE 4.6 mph - N/A   Overcast
3:35 AM 35.6 °F 30.7 °F 33.8 °F 93% 29.94 in 2.0 mi West 5.8 mph - N/A   Overcast
3:55 AM 33.8 °F 29.6 °F 32.0 °F 93% 29.92 in 0.2 mi NE 4.6 mph - N/A   Overcast
4:15 AM 33.8 °F - 32.0 °F 93% 29.91 in 0.5 mi Calm Calm - N/A   Overcast
4:35 AM 33.8 °F 30.8 °F 32.0 °F 93% 29.91 in 1.2 mi North 3.5 mph - N/A   Overcast
4:55 AM 33.8 °F 29.6 °F 33.8 °F 100% 29.91 in 1.5 mi ENE 4.6 mph - N/A   Overcast
5:15 AM 35.6 °F 31.7 °F 33.8 °F 93% 29.90 in 1.2 mi NE 4.6 mph - N/A   Overcast
5:35 AM 35.6 °F 32.8 °F 33.8 °F 93% 29.91 in 1.2 mi ENE 3.5 mph - N/A   Overcast
5:55 AM 35.6 °F 32.8 °F 33.8 °F 93% 29.90 in 1.5 mi ENE 3.5 mph - N/A   Overcast
6:15 AM 35.6 °F 32.8 °F 33.8 °F 93% 29.90 in 1.5 mi ENE 3.5 mph - N/A   Overcast
6:35 AM 35.6 °F 32.8 °F 33.8 °F 93% 29.90 in 3.0 mi East 3.5 mph - N/A   Overcast
6:55 AM 35.6 °F 32.8 °F 33.8 °F 93% 29.91 in 3.0 mi East 3.5 mph - N/A   Overcast
7:15 AM 35.6 °F 31.7 °F 33.8 °F 93% 29.89 in 2.0 mi East 4.6 mph - N/A   Overcast
7:35 AM 35.6 °F 31.7 °F 33.8 °F 93% 29.89 in 1.8 mi East 4.6 mph - N/A   Overcast
7:55 AM 35.6 °F 31.7 °F 33.8 °F 93% 29.89 in 0.2 mi ENE 4.6 mph - N/A   Overcast
8:15 AM 35.6 °F - 33.8 °F 93% 29.89 in 0.2 mi Calm Calm - N/A   Overcast
8:35 AM 35.6 °F - 33.8 °F 93% 29.90 in 0.2 mi Calm Calm - N/A   Overcast
8:55 AM 35.6 °F 32.8 °F 33.8 °F 93% 29.90 in 0.2 mi East 3.5 mph - N/A   Overcast
9:15 AM 35.6 °F 32.8 °F 35.6 °F 100% 29.91 in 0.2 mi East 3.5 mph - N/A   Overcast
9:35 AM 37.4 °F - 35.6 °F 93% 29.91 in 0.2 mi Calm Calm - N/A   Overcast
9:55 AM 37.4 °F - 35.6 °F 93% 29.91 in 0.2 mi Calm Calm - N/A   Overcast
10:15 AM 37.4 °F 34.9 °F 35.6 °F 93% 29.91 in 0.2 mi East 3.5 mph - N/A   Overcast
10:35 AM 37.4 °F 34.9 °F 35.6 °F 93% 29.90 in 0.2 mi ESE 3.5 mph - N/A   Overcast
10:55 AM 39.2 °F 37.0 °F 37.4 °F 93% 29.88 in 0.2 mi East 3.5 mph - N/A   Overcast
11:15 AM 39.2 °F 37.0 °F 37.4 °F 93% 29.87 in 0.2 mi East 3.5 mph - N/A   Overcast
11:35 AM 39.2 °F 37.0 °F 39.2 °F 100% 29.87 in 0.5 mi SSW 3.5 mph - N/A   Overcast
11:55 AM 39.2 °F - 39.2 °F 100% 29.87 in 0.2 mi Calm Calm - N/A   Overcast
12:15 PM 41.0 °F 39.0 °F 39.2 °F 93% 29.85 in 0.2 mi South 3.5 mph - N/A   Overcast
12:35 PM 41.0 °F 39.0 °F 39.2 °F 93% 29.85 in 0.2 mi South 3.5 mph - N/A   Overcast
12:55 PM 41.0 °F - 39.2 °F 93% 29.85 in 0.2 mi Calm Calm - N/A   Overcast
1:15 PM 41.0 °F - 39.2 °F 93% 29.85 in 0.2 mi Calm Calm - N/A   Overcast
1:35 PM 42.8 °F - 39.2 °F 87% 29.85 in 0.2 mi Calm Calm - N/A   Overcast
1:55 PM 42.8 °F 41.1 °F 39.2 °F 87% 29.85 in 0.5 mi West 3.5 mph - N/A   Overcast
2:15 PM 42.8 °F - 41.0 °F 93% 29.85 in 0.5 mi Calm Calm - N/A   Overcast
2:35 PM 42.8 °F - 41.0 °F 93% 29.85 in 0.5 mi Calm Calm - N/A   Overcast
2:55 PM 42.8 °F - 41.0 °F 93% 29.86 in 1.0 mi Calm Calm - N/A   Overcast
3:15 PM 42.8 °F - 42.8 °F 100% 29.87 in 1.8 mi Calm Calm - N/A   Overcast
3:35 PM 42.8 °F - 42.8 °F 100% 29.87 in 2.0 mi Calm Calm - N/A   Overcast
3:55 PM 44.6 °F - 41.0 °F 87% 29.88 in 2.5 mi Calm Calm - N/A   Overcast
4:15 PM 44.6 °F - 42.8 °F 93% 29.89 in 2.5 mi Calm Calm - N/A   Overcast
4:35 PM 42.8 °F - 41.0 °F 93% 29.88 in 4.0 mi Calm Calm - N/A   Overcast
4:55 PM 42.8 °F - 39.2 °F 87% 29.88 in 0.5 mi Calm Calm - N/A   Overcast
5:15 PM 42.8 °F - 39.2 °F 87% 29.89 in 0.5 mi Calm Calm - N/A   Overcast
5:35 PM 42.8 °F - 39.2 °F 87% 29.89 in 0.2 mi Calm Calm - N/A   Overcast
5:55 PM 41.0 °F 39.0 °F 39.2 °F 93% 29.90 in 0.2 mi South 3.5 mph - N/A   Overcast
6:15 PM 41.0 °F - 39.2 °F 93% 29.90 in 0.2 mi Calm Calm - N/A   Overcast
6:35 PM 41.0 °F - 39.2 °F 93% 29.91 in 0.2 mi Calm Calm - N/A   Overcast
6:55 PM 42.8 °F - 39.2 °F 87% 29.92 in 0.5 mi Calm Calm - N/A   Overcast
7:15 PM 41.0 °F 39.0 °F 39.2 °F 93% 29.92 in 0.5 mi SSW 3.5 mph - N/A   Overcast
7:35 PM 42.8 °F - 41.0 °F 93% 29.92 in 0.2 mi Calm Calm - N/A   Overcast
7:55 PM 42.8 °F - 39.2 °F 87% 29.93 in 0.5 mi Calm Calm - N/A   Overcast
8:15 PM 42.8 °F - 41.0 °F 93% 29.93 in 0.5 mi Calm Calm - N/A   Overcast
8:35 PM 41.0 °F - 39.2 °F 93% 29.94 in 0.5 mi Calm Calm - N/A   Overcast
8:55 PM 41.0 °F - 39.2 °F 93% 29.94 in 0.2 mi Calm Calm - N/A   Overcast
9:15 PM 41.0 °F - 39.2 °F 93% 29.95 in 0.2 mi Calm Calm - N/A   Overcast
9:35 PM 39.2 °F - 37.4 °F 93% 29.95 in 0.2 mi Calm Calm - N/A   Overcast
9:55 PM 41.0 °F - 39.2 °F 93% 29.96 in 0.2 mi Calm Calm - N/A   Overcast
10:15 PM 41.0 °F 37.1 °F 39.2 °F 93% 29.97 in 0.5 mi NW 5.8 mph - N/A   Overcast
10:35 PM 42.8 °F 38.6 °F 41.0 °F 93% 29.98 in 2.0 mi WNW 6.9 mph - N/A   Overcast
10:55 PM 42.8 °F 38.0 °F 42.8 °F 100% 29.98 in 4.0 mi West 8.1 mph - N/A   Overcast
11:15 PM 42.8 °F 39.3 °F 41.0 °F 93% 29.99 in 3.0 mi West 5.8 mph - N/A   Mostly Cloudy
11:35 PM 42.8 °F 38.0 °F 41.0 °F 93% 29.99 in 2.5 mi West 8.1 mph - N/A   Mostly Cloudy
11:55 PM 42.8 °F 38.0 °F 39.2 °F 87% 30.00 in 2.5 mi West 8.1 mph - N/A   Scattered Clouds